AirNav   TITAN Aviation Fuels
 
 1393 users online  

07KY Blue Lick Airport
Louisville, Kentucky, USA

GOING TO LOUISVILLE?


FAA INFORMATION EFFECTIVE 09 SEPTEMBER 2021

Location

FAA Identifier: 07KY
Lat/Long: 38-04-50.2410N 085-41-35.8530W
38-04.837350N 085-41.597550W
38.0806225,-85.6932925
(estimated)
Elevation: 532 ft. / 162.2 m (surveyed)
Variation: 02W (1985)
From city: 9 miles SE of LOUISVILLE, KY
Time zone: UTC -4 (UTC -5 during Standard Time)
Zip code: 40229

Airport Operations

Airport use: Private use. Permission required prior to landing
Activation date: 09/1973
Control tower: no
ARTCC: INDIANAPOLIS CENTER
FSS: LOUISVILLE FLIGHT SERVICE STATION
Attendance: DAYLIGHT HOURS
Wind indicator: yes
Segmented circle: yes

Airport Communications

UNICOM: 122.8
WX ASOS at SDF (6 nm N): PHONE 502-367-1492
WX ASOS at LOU (9 nm N): 118.275 (502-473-0693)
WX AWOS-3 at JVY (17 nm N): 118.575 (812-246-1278)
WX AWOS-3 at BRY (18 nm SE): 119.925 (502-348-1867)

Nearby radio navigation aids

VOR radial/distance  VOR name  Freq  Var
IIUr255/5.6LOUISVILLE VORTAC114.8001E
FTKr053/16.8FORT KNOX VOR/DME109.6001W
EWOr357/26.9NEW HOPE VOR/DME110.8001E
MYSr068/(28.4)MYSTIC VOR108.2001W
FFTr264/(37.5)FRANKFORT VOR109.4003W

 
NDB name  Hdg/Dist  Freq  Var  ID
LAANG220/4.841404WLK .-.. -.-
GODMAN064/15.339603WGOI --. --- ..

Airport Services

Parking: hangars
Airframe service: NONE
Powerplant service: NONE
Bottled oxygen: NONE
Bulk oxygen: NONE

Runway Information

Runway 11/29

Dimensions: 2000 x 100 ft. / 610 x 30 m
Surface: turf
RUNWAY 11  RUNWAY 29
Traffic pattern: rightleft
Markings: NSTD, in good conditionNSTD, in good condition
Obstructions: trees, 450 ft. from runway, 25:1 slope to cleartrees, 1000 ft. from runway, 20:1 slope to clear

Airport Ownership and Management from official FAA records

Ownership: Privately-owned
Owner: THOMAS H. JEAN
1432 HILLVIEW BLVD
HILLVIEW, KY 40229
Phone 502-957-5159
ARPT RELATED CORRESPONDENCE TO ARPT MGR ONLY.
Manager: THOMAS H. JEAN
1432 HILLVIEW BLVD
HILLVIEW, KY 40229
Phone 502-957-5159

Airport Operational Statistics

Aircraft based on the field: 15
Single engine airplanes: 15
    
Aircraft operations: avg 24/week *
98% local general aviation
2% transient general aviation
* for 12-month period ending 14 December 1979

Additional Remarks

PLINES 90FT FROM RWY 29
FOR CD CTC LOUISVILLE APCH AT 502-375-7499

Instrument Procedures

There are no published instrument procedures at 07KY.

Some nearby airports with instrument procedures:

KSDF - Louisville Muhammad Ali International Airport (6 nm N)
KLOU - Bowman Field Airport (9 nm N)
KFTK - Godman Army Airfield (17 nm SW)
KJVY - Clark Regional Airport (17 nm N)
KBRY - Samuels Field Airport (18 nm SE)
 
Loc | Ops | Rwys | IFR | FBO | Links
Com | Nav | Svcs | Stats | Notes
Area around 07KY (Blue Lick Airport)
 
Road maps at: MapQuest Bing Google
 
Aerial photo
WARNING: Photo may not be current or correct
Aerial photo of 07KY (Blue Lick Airport)
Do you have a better or more recent aerial photo of Blue Lick Airport that you would like to share? If so, please send us your photo.

 
Sectional chart

 
Airport distance calculator
Flying to Blue Lick Airport? Find the distance to fly.

From to 07KY

Sunrise and sunset
Times for 20-Sep-2021
 Local
(UTC-4)
 Zulu
(UTC)
Morning civil twilight07:0311:03
Sunrise07:3011:30
Sunset19:4323:43
Evening civil twilight20:0900:09

Current date and time
Zulu (UTC)  20-Sep-2021 21:17:14
Local (UTC-4)  20-Sep-2021 17:17:14
 
METAR
KSDF 
6nm N 
202056Z 15011KT 10SM SCT016 SCT040 BKN050 BKN300 24/21 A3005 RMK AO2 RAE34 SLP171 P0000 60000 T02440211 56004
KLOU 
8nm N 
202053Z 16013G18KT 10SM FEW014 SCT049 BKN060 24/21 A3005 RMK AO2 RAE23 SLP172 P0000 60001 T02440211 56006
KJVY 
17nm N 
202055Z AUTO 19009KT 10SM CLR 24/21 A3004 RMK AO2
KFTK 
18nm SW 
202056Z AUTO 14008KT 10SM BKN016 BKN028 OVC039 23/21 A3005 RMK AO2 CIG 016V037 SLP173 60000 T02260212 56004
KBRY 
18nm SE 
202055Z AUTO 17003KT 7SM BKN008 BKN050 20/20 A3007 RMK AO1
TAF
KSDF 
6nm N 
201733Z 2018/2124 15010KT 6SM -SHRA SCT018 OVC025 TEMPO 2018/2022 3SM -SHRA BR FM202300 14009KT P6SM BKN050 FM211300 19008KT P6SM VCSH SCT018 BKN025 PROB30 2121/2124 3SM SHRA
KFTK 
18nm SW 
201900Z 2019/2201 14009KT 8000 -RA BKN012 OVC020 QNH3003INS TEMPO 2019/2022 16012G18KT 3200 SHRA VCTS BKN009 OVC015CB BECMG 2022/2023 15009KT 9999 NSW SCT010 BKN020 QNH3002INS BECMG 2105/2106 16006KT 9000 BR BKN010 QNH3001INS BECMG 2107/2108 18006KT 6000 BR BKN005 QNH3002INS BECMG 2114/2115 18007KT 9999 VCSH SCT006 BKN012 QNH3000INS BECMG 2118/2119 19007KT 8000 -SHRA BKN015 OVC026 QNH2995INS TEMPO 2119/2201 22014G20KT 3200 TSRA OVC015CB TX25/2119Z TN19/2112Z LAST NO AMDS AFT 2103 NEXT 2111
NOTAMs
Click for the latest NOTAMs
NOTAMs are issued by the DoD/FAA and will open in a separate window not controlled by AirNav.

 

 
 

Would you like to see your business listed on this page?

 If your business provides an interesting product or service to pilots, flight crews, aircraft, or users of the Blue Lick Airport, you should consider listing it here.  To start the listing process, click on the button below
 
Add a business
 

Other Pages about Blue Lick Airport

Update a link
 
Copyright © AirNav, LLC. All rights reserved. Privacy Policy  Contact